Regional Weather Roundup
Issued by NWS

Home | Current Version | Previous Version | Text Only | Print | Product List | Glossary Off
Versions: 1 2 3 4 5 6 7 8 9 10 11 12 13 14 15 16 17 18 19 20 21 22 23 24 25 26 27 28 29 30 31 32 33 34 35 36 37 38 39 40 41 42 43 44 45 46 47 48 49 50

000
ASUS43 KMKX 261700
RWRWI

WISCONSIN REGIONAL WEATHER ROUNDUP
NATIONAL WEATHER SERVICE MILWAUKEE/SULLIVAN WI
1100 AM CST WED NOV 26 2014

NOTE: "FAIR" INDICATES FEW OR NO CLOUDS BELOW 12,000 FEET WITH NO
SIGNIFICANT WEATHER AND/OR OBSTRUCTIONS TO VISIBILITY.

WIZ001-002-006>008-014>016-023>028-261800-
NORTHWEST WISCONSIN

CITY           SKY/WX    TMP DP  RH WIND       PRES   REMARKS
SUPERIOR ARPT  CLOUDY    23  14  69 NW7       30.22R WCI  15
ASHLAND        LGT SNOW  22  19  89 SW5       30.19S FOG     WCI  16
HAYWARD        LGT SNOW  23  17  78 CALM      30.16R
SIREN          CLOUDY    24  16  71 NE8       30.19R WCI  15
CUMBERLAND     LGT SNOW  23  18  80 CALM      30.16R
RICE LAKE      CLOUDY    24  17  75 CALM      30.18R
CHETEK         LGT SNOW  23  18  80 CALM      30.17R
LADYSMITH      CLOUDY    23  18  80 CALM      30.17R
EAU CLAIRE     NOT AVBL
MENOMONIE      CLOUDY    25  18  74 N6        30.17R WCI  18
NEW RICHMOND   LGT SNOW  24  20  85 N5        30.18R WCI  18
OSCEOLA        LGT SNOW  24  22  91 N6        30.21R WCI  17
$$

WIZ003>005-009-010-017-018-261800-
NORTH CENTRAL WISCONSIN

CITY           SKY/WX    TMP DP  RH WIND       PRES   REMARKS
MANITOWISH WTR LGT SNOW  19  17  95 CALM      30.11S
ARBOR VITAE    LGT SNOW  21  18  87 CALM      30.11S
WOODRUFF       LGT SNOW  21  18  87 CALM      30.11S
RHINELANDER    CLOUDY    20  16  84 CALM      30.11S FOG
EAGLE RIVER    LGT SNOW  18  15  88 CALM      30.10S
LAND O LAKES   LGT SNOW  19  16  87 CALM      30.11S
PHILLIPS       FLURRIES  20  16  83 CALM      30.12R
TOMAHAWK       CLOUDY    19  15  88 CALM      30.13S
MEDFORD        CLOUDY    21  14  75 S3        30.11S
MERRILL        CLOUDY    20  17  86 CALM      30.13R
$$

WIZ029-030-035-036-043>047-261800-
CENTRAL WISCONSIN

CITY           SKY/WX    TMP DP  RH WIND       PRES   REMARKS
WAUSAU         CLOUDY    21  17  84 CALM      30.12S
MOSINEE        MOSUNNY   19  19 100 CALM      30.14S
MARSHFIELD     CLOUDY    21  15  78 SE5       30.13R WCI  15
STEVENS POINT  PTSUNNY   17  16  95 CALM      30.15R
WAUPACA        CLOUDY    22  19  89 CALM      30.17F FOG
WAUTOMA        NOT AVBL
WISC RAPIDS    PTSUNNY   21  15  78 CALM      30.16R
CAMP DOUGLAS   NOT AVBL
$$

WIZ011>013-019>022-031-037>040-048>050-261800-
NORTHEAST WISCONSIN

CITY           SKY/WX    TMP DP  RH WIND       PRES   REMARKS
ANTIGO         CLOUDY    17  16  95 CALM      30.12R FOG
SHAWANO        CLOUDY    20  18  91 CALM      30.17F
OCONTO         CLOUDY    20  20  99 CALM      30.19S
STURGEON BAY   FAIR      25  16  68 CALM      30.17F
GREEN BAY      PTSUNNY   20  19  96 S3        30.18F
MANITOWOC      NOT AVBL
APPLETON       CLOUDY    21  19  93 CALM      30.15F
CLINTONVILLE   CLOUDY    19  19 100 CALM      30.17S FOG
OSHKOSH        PTSUNNY   21  18  88 MISG      30.16S FOG
$$

WIZ032>034-041-042-053>061-261800-
SOUTHWEST WISCONSIN

CITY           SKY/WX    TMP DP  RH WIND       PRES   REMARKS
LA CROSSE      CLOUDY    25  17  72 NE3       30.14S
SPARTA         CLOUDY    24  18  77 CALM      30.15S
VIROQUA        PTSUNNY   21  18  89 E7        30.10R WCI  12
BOSCOBEL       CLOUDY    22  17  81 NE7       30.13F WCI  13
PRAIRIE DU CHI CLOUDY    23  18  82 SE5       30.11S WCI  17
PLATTEVILLE    CLOUDY    21  20  96 E10       30.11S WCI  10
$$

WIZ056-057-062-063-064-067-068-261800-
SOUTH CENTRAL WISCONSIN

CITY           SKY/WX    TMP DP  RH WIND       PRES   REMARKS
REEDSBURG      PTSUNNY   17  15  93 CALM      30.14R
BARABOO/DELLS  PTSUNNY   19  17  95 N3        30.13S FOG
LONE ROCK      NOT AVBL
MINERAL POINT  CLOUDY    23  21  93 E5        30.09F FOG     WCI  17
MADISON        CLOUDY    18  16  92 S9        30.15S FOG     WCI   7
MIDDLETON      CLOUDY    21  19  93 S3        30.15R
WATERTOWN      LGT SNOW  15  14  95 CALM      30.14F
MONROE         CLOUDY    21  21 100 E6        30.11F FOG     WCI  14
JANESVILLE     CLOUDY    23  21  93 E3        30.14S FOG
$$

WIZ051-052-058>065-066-070>072-261800-
SOUTHEAST WISCONSIN

CITY           SKY/WX    TMP DP  RH WIND       PRES   REMARKS
MILWAUKEE      PTSUNNY   28  21  75 CALM      30.14F HAZE
WAUKESHA       MOSUNNY   19  19 100 CALM      30.14F FOG
MILWAUKEE/TIMM SUNNY     27  18  69 CALM      30.15F
RACINE         PTSUNNY   25  20  81 W5        30.16F WCI  19
BURLINGTON     PTSUNNY   19  18  96 CALM      30.14S FOG
KENOSHA        PTSUNNY   24  21  88 CALM      30.14F FOG
FOND DU LAC    PTSUNNY   22  18  85 CALM      30.15F
SHEBOYGAN      CLOUDY    25  20  81 NE7       30.15F WCI  17
WEST BEND      PTSUNNY   25  19  80 CALM      30.15F
JUNEAU         CLOUDY    17  15  92 SE6       30.15F FOG     WCI   9
$$

LSZ147-162-261800-
LAKE SUPERIOR

STATION/POSITION TIME  TEMP    WIND        PRES    WAVE
                       AIR SEA DIR/SP/G            HT/PER
                 (UTC) (F)     (DEG/KT/KT) (MB)    (FT/S)
DEVILS ISLAND    1600   25     350/ 15/ 16 1023.0R
PORT WING        1640   24     340/ 11/ 13 1023.0R
SAXON HARBOR     1600   22     200/  4/  6 1022.0R
$$

LMZ867-665-643>646-261800-
LAKE MICHIGAN

STATION/POSITION TIME  TEMP    WIND        PRES    WAVE
                       AIR SEA DIR/SP/G            HT/PER
                 (UTC) (F)     (DEG/KT/KT) (MB)    (FT/S)
CHAMBERS ISLAND  1600   23     260/  5/  8 1022.4R
N MID LAKE BUOY  1550   28 42  330/  6/  8 1022.5R   1
NORTHPORT PIER   1608   26     330/  7/  9 1022.0R
SISTER BAY       1513             CALM       N/A
ALGOMA LAKESHORE 1613          340/  5/  7   N/A
KEWAUNEE LAKESHO 1600   23     300/  4/  6 1021.1R
SHEBOYGAN LAKESH 1600   24 36  310/  5/  6 1022.9R
PORT WASHINGTON  1600   25     270/  3/  7 1022.4S
MILWAUKEE LAKESH 1600   26     300/  3/  4   N/A
S MID LAKE BUOY  1550   31 42  150/ 10/ 14 1021.8S   1/ 3
KENOSHA   LAKESH 1600   22     270/  7/  8 1021.0S
$$

TC  - TEMPERATURE IN CELSIUS
VSB - VISIBILITY IN STATUTE MILES
WCI - WIND CHILL INDEX
HX  - HEAT INDEX



USA.gov is the U.S. government's official web portal to all federal, state and local government web resources and services.